sat.trackr.live / text

‹ back to catalog

KUIPER-00226

NORAD 67785 · 2026-030X

PAYLOAD ACTIVE UNKNOWN

§ Identity

Operator
Country
US
Launch date
2026-02-12
Launch site
FRGUI
Launch vehicle
Mass (kg)
RCS (m²)

External: N2YO · Heavens-Above · Gunter

§ Orbital elements

Epoch: 2026-05-25T04:22:19.189920Z

Period
94.52 min
Inclination
51.8861°
Eccentricity
0.0018726
Mean motion
15.23527668 rev/d
Perigee alt
482.3 km
Apogee alt
508.1 km
Semi-major
6,873.3 km
B*
-1.6206e-4
RAAN
215.6323°
Arg perigee
341.6935°
Mean anomaly
18.3370°
Rev number
1,677

§ Raw data

KUIPER-002261 67785U 26030X   26145.18216655 -.00004287  00000+0 -16206-3 0  99962 67785  51.8861 215.6323 0018726 341.6935  18.3370 15.23527668 16779

JSON: /api/v1/satellites/67785 · /tle

For live sub-satellite position, see the globe view (requires WebGL).

§ Visibility from observer

Set your observer location to see the next 7 days of passes ≥ 10°. The values pass through the URL so the page stays shareable.

No JS? Fill the form by hand. The geolocation button needs JavaScript.